When you browse on this site, cookies collect data to enhance your experience and personalize the content and advertising you see.
Visit our Privacy Policy to learn more. By continuing to use the site, you agree to this use of cookies and data.
  • In Czech Republic
  • List of Countries
  • For 7 days
  • Water Temperature
  • Weather Map
  • Weather Widgets
  • user-avatar
    Login

    Hourly Weather Frombork

    Today, 26 May, Tuesday

    Time Temperature Precipitation Wind Pressure Humidity
    00:00 +7°C° 0 mm 4 mps 770 mmHg 95%
    01:00 +7°C° 0 mm 4 mps 770 mmHg 95%
    02:00 +7°C° 0 mm 4 mps 770 mmHg 95%
    03:00 +7°C° 0 mm 4 mps 771 mmHg 96%
    04:00 +7°C° 0 mm 4 mps 771 mmHg 96%
    05:00 +8°C° 0 mm 4 mps 771 mmHg 93%
    06:00 +11°C° 0 mm 4 mps 771 mmHg 90%
    07:00 +12°C° 0 mm 4 mps 772 mmHg 86%
    08:00 +13°C° 0 mm 4 mps 772 mmHg 81%
    09:00 +14°C° 0 mm 4 mps 772 mmHg 76%
    10:00 +15°C° 0 mm 4 mps 772 mmHg 71%
    11:00 +15°C° 0 mm 4 mps 772 mmHg 71%
    12:00 +15°C° 0 mm 5 mps 772 mmHg 71%
    13:00 +15°C° 0 mm 5 mps 772 mmHg 71%
    14:00 +15°C° 0 mm 5 mps 772 mmHg 72%
    15:00 +15°C° 0 mm 5 mps 772 mmHg 73%
    16:00 +14°C° 0 mm 5 mps 772 mmHg 74%
    17:00 +13°C° 0 mm 5 mps 772 mmHg 77%
    18:00 +12°C° 0 mm 5 mps 772 mmHg 81%
    19:00 +11°C° 0 mm 4 mps 772 mmHg 84%
    20:00 +10°C° 0 mm 4 mps 772 mmHg 86%
    21:00 +10°C° 0 mm 4 mps 772 mmHg 87%
    22:00 +8°C° 0 mm 4 mps 772 mmHg 88%
    23:00 +8°C° 0 mm 4 mps 772 mmHg 88%

    Tomorrow, 27 May, Wednesday

    Time Temperature Precipitation Wind Pressure Humidity
    00:00 +8°C° 0 mm 4 mps 772 mmHg 88%
    01:00 +7°C° 0 mm 4 mps 772 mmHg 88%
    02:00 +7°C° 0 mm 4 mps 772 mmHg 88%
    03:00 +7°C° 0 mm 4 mps 771 mmHg 88%
    04:00 +7°C° 0 mm 4 mps 771 mmHg 87%
    05:00 +10°C° 0 mm 3 mps 771 mmHg 83%
    06:00 +11°C° 0 mm 3 mps 771 mmHg 79%
    07:00 +13°C° 0 mm 3 mps 771 mmHg 74%
    08:00 +13°C° 0 mm 3 mps 771 mmHg 71%
    09:00 +14°C° 0 mm 3 mps 771 mmHg 68%
    10:00 +16°C° 0 mm 3 mps 771 mmHg 65%
    11:00 +16°C° 0 mm 3 mps 770 mmHg 66%
    12:00 +17°C° 0 mm 3 mps 770 mmHg 67%
    13:00 +17°C° 0 mm 4 mps 770 mmHg 67%
    14:00 +17°C° 0 mm 3 mps 769 mmHg 68%
    15:00 +16°C° 0 mm 3 mps 769 mmHg 69%
    16:00 +16°C° 0 mm 3 mps 769 mmHg 70%
    17:00 +15°C° 0 mm 2 mps 768 mmHg 74%
    18:00 +14°C° 0 mm 2 mps 768 mmHg 78%
    19:00 +12°C° 0 mm 2 mps 768 mmHg 81%
    20:00 +12°C° 0 mm 2 mps 767 mmHg 80%
    21:00 +12°C° 0 mm 2 mps 767 mmHg 79%
    22:00 +10°C° 0 mm 2 mps 767 mmHg 79%
    23:00 +10°C° 0 mm 3 mps 767 mmHg 80%

    Day after tomorrow, 28 May, Thursday

    Time Temperature Precipitation Wind Pressure Humidity
    00:00 +10°C° 0 mm 3 mps 766 mmHg 82%
    01:00 +10°C° 0 mm 4 mps 766 mmHg 83%
    02:00 +8°C° 0 mm 4 mps 766 mmHg 85%
    03:00 +8°C° 0 mm 4 mps 766 mmHg 88%
    04:00 +7°C° 0 mm 4 mps 765 mmHg 90%
    05:00 +8°C° 0 mm 4 mps 766 mmHg 88%
    06:00 +10°C° 0 mm 5 mps 766 mmHg 85%
    07:00 +12°C° 0 mm 5 mps 766 mmHg 83%
    08:00 +13°C° 0 mm 5 mps 766 mmHg 81%
    09:00 +14°C° 0 mm 6 mps 766 mmHg 79%
    10:00 +15°C° 0 mm 7 mps 766 mmHg 77%
    11:00 +15°C° 0.1 mm 7 mps 766 mmHg 75%
    12:00 +13°C° 0.1 mm 8 mps 766 mmHg 74%
    13:00 +13°C° 0.1 mm 8 mps 766 mmHg 72%
    14:00 +13°C° 0 mm 9 mps 766 mmHg 71%
    15:00 +12°C° 0 mm 9 mps 766 mmHg 70%
    16:00 +12°C° 0 mm 9 mps 766 mmHg 69%
    17:00 +11°C° 0 mm 9 mps 767 mmHg 71%
    18:00 +10°C° 0 mm 8 mps 767 mmHg 73%
    19:00 +9°C° 0 mm 8 mps 767 mmHg 75%
    20:00 +8°C° 0 mm 7 mps 767 mmHg 74%
    21:00 +6°C° 0 mm 7 mps 768 mmHg 73%
    22:00 +7°C° 0 mm 6 mps 768 mmHg 73%
    23:00 +5°C° 0 mm 6 mps 768 mmHg 73%

    29 May, Friday

    Time Temperature Precipitation Wind Pressure Humidity
    00:00 +5°C° 0 mm 6 mps 768 mmHg 73%
    01:00 +5°C° 0 mm 6 mps 768 mmHg 74%
    02:00 +5°C° 0 mm 6 mps 768 mmHg 75%
    03:00 +5°C° 0 mm 6 mps 768 mmHg 76%
    04:00 +5°C° 0 mm 6 mps 768 mmHg 77%
    05:00 +8°C° 0 mm 6 mps 768 mmHg 75%
    06:00 +9°C° 0 mm 7 mps 768 mmHg 72%
    07:00 +10°C° 0 mm 7 mps 768 mmHg 70%
    08:00 +11°C° 0 mm 7 mps 768 mmHg 67%
    09:00 +11°C° 0 mm 7 mps 768 mmHg 64%
    10:00 +13°C° 0 mm 6 mps 768 mmHg 62%
    11:00 +13°C° 0 mm 6 mps 767 mmHg 61%
    12:00 +13°C° 0 mm 6 mps 767 mmHg 61%
    13:00 +14°C° 0 mm 6 mps 767 mmHg 60%
    14:00 +13°C° 0 mm 6 mps 767 mmHg 61%
    15:00 +13°C° 0 mm 6 mps 767 mmHg 63%
    16:00 +13°C° 0 mm 6 mps 766 mmHg 64%
    17:00 +12°C° 0 mm 5 mps 766 mmHg 69%
    18:00 +10°C° 0 mm 5 mps 766 mmHg 74%
    19:00 +9°C° 0 mm 5 mps 766 mmHg 79%
    20:00 +8°C° 0 mm 5 mps 767 mmHg 82%
    21:00 +7°C° 0 mm 5 mps 767 mmHg 86%
    22:00 +6°C° 0 mm 5 mps 767 mmHg 89%
    23:00 +6°C° 0 mm 5 mps 767 mmHg 89%

    30 May, Saturday

    Time Temperature Precipitation Wind Pressure Humidity
    00:00 +6°C° 0 mm 5 mps 767 mmHg 88%
    01:00 +6°C° 0 mm 5 mps 767 mmHg 88%
    02:00 +7°C° 0 mm 5 mps 767 mmHg 87%
    03:00 +7°C° 0 mm 5 mps 767 mmHg 86%
    04:00 +8°C° 0 mm 5 mps 767 mmHg 84%
    05:00 +9°C° 0 mm 5 mps 767 mmHg 82%
    06:00 +9°C° 0 mm 5 mps 767 mmHg 80%
    07:00 +10°C° 0 mm 5 mps 767 mmHg 79%
    08:00 +12°C° 0 mm 5 mps 767 mmHg 75%
    09:00 +12°C° 0 mm 5 mps 767 mmHg 71%
    10:00 +13°C° 0 mm 6 mps 767 mmHg 68%
    11:00 +13°C° 0 mm 6 mps 766 mmHg 69%
    12:00 +13°C° 0 mm 6 mps 766 mmHg 70%
    13:00 +14°C° 0 mm 6 mps 766 mmHg 71%
    14:00 +14°C° 0 mm 6 mps 766 mmHg 72%
    15:00 +13°C° 0 mm 6 mps 766 mmHg 73%
    16:00 +13°C° 0 mm 6 mps 765 mmHg 74%
    17:00 +12°C° 0 mm 5 mps 765 mmHg 79%
    18:00 +12°C° 0 mm 4 mps 765 mmHg 83%
    19:00 +11°C° 0 mm 4 mps 765 mmHg 87%
    20:00 +10°C° 0 mm 3 mps 765 mmHg 89%
    21:00 +9°C° 0 mm 3 mps 765 mmHg 91%
    22:00 +9°C° 0 mm 2 mps 765 mmHg 93%
    23:00 +9°C° 0 mm 2 mps 765 mmHg 93%

    31 May, Sunday

    Time Temperature Precipitation Wind Pressure Humidity
    00:00 +9°C° 0 mm 2 mps 765 mmHg 93%
    01:00 +9°C° 0 mm 2 mps 765 mmHg 93%
    02:00 +9°C° 0 mm 2 mps 765 mmHg 93%
    03:00 +9°C° 0 mm 2 mps 765 mmHg 93%
    04:00 +9°C° 0 mm 2 mps 765 mmHg 94%
    05:00 +11°C° 0 mm 3 mps 765 mmHg 92%
    06:00 +12°C° 0 mm 3 mps 765 mmHg 89%
    07:00 +14°C° 0 mm 4 mps 765 mmHg 87%
    08:00 +15°C° 0 mm 4 mps 765 mmHg 81%
    09:00 +17°C° 0 mm 4 mps 765 mmHg 74%
    10:00 +17°C° 0 mm 5 mps 765 mmHg 68%
    11:00 +17°C° 0 mm 5 mps 765 mmHg 67%
    12:00 +17°C° 0 mm 6 mps 765 mmHg 65%
    13:00 +19°C° 0 mm 6 mps 765 mmHg 64%
    14:00 +17°C° 0 mm 6 mps 765 mmHg 66%
    15:00 +17°C° 0 mm 6 mps 765 mmHg 68%
    16:00 +17°C° 0 mm 6 mps 765 mmHg 70%
    17:00 +16°C° 0 mm 5 mps 765 mmHg 73%
    18:00 +15°C° 0 mm 5 mps 765 mmHg 77%
    19:00 +14°C° 0 mm 4 mps 765 mmHg 80%
    20:00 +13°C° 0 mm 4 mps 765 mmHg 80%
    21:00 +12°C° 0 mm 4 mps 765 mmHg 79%
    22:00 +12°C° 0 mm 3 mps 765 mmHg 79%
    23:00 +12°C° 0 mm 3 mps 765 mmHg 81%
    Show more